Weather History for KHRO - February, 2012

Change the Weather History Date:

Wednesday, February 15, 2012

  Actual Average Record
Temperature  
Mean Temperature 45 °F 40 °F  
Max Temperature 50 °F 51 °F 80 °F (1945)
Min Temperature 39 °F 30 °F -6 °F (1905)
Degree Days  
Heating Degree Days 20 25  
Month to date heating degree days 394 390  
Since 1 July heating degree days 2507 2876  
Cooling Degree Days 0 0  
Month to date cooling degree days 0 0  
Year to date cooling degree days 0 0  
Moisture  
Dew Point 44 °F    
Average Humidity 91    
Maximum Humidity 100    
Minimum Humidity 82    
Precipitation  
Precipitation 0.22 in 0.09 in 2.44 in (1903)
Month to date precipitation 1.63 1.35  
Year to date precipitation 4.89 3.91  
Snow  
Snow 0.00 in 0.10 in 14.30 in (1993)
Month to date snowfall 1.0 1.9  
Since 1 July snowfall 2.1 7.9  
Snow Depth 0.00 in    
Sea Level Pressure  
Sea Level Pressure 29.96 in    
Wind  
Wind Speed 8 mph (SSE)    
Max Wind Speed 16 mph    
Max Gust Speed 18 mph    
Visibility 8 miles    
Events Rain , Thunderstorm    
T = Trace of Precipitation, MM = Missing Value Source: NWS Daily Summary

Daily Weather History Graph

Daily Weather History Graph

Search for Another Location

Airport or City:

Trip Planner

Search our weather history database for the weather conditions in past years. The results will help you decide how hot, cold, wet, or windy it might be!

Date:

Astronomy

Feb. 15, 2012 Rise Set
Actual Time 7:00 AM CST 5:53 PM CST
Civil Twilight 6:34 AM CST 6:19 PM CST
Nautical Twilight 6:04 AM CST 6:49 PM CST
Astronomical Twilight 5:34 AM CST 7:19 PM CST
Moon 1:49 AM CST (2/15) 11:54 AM CST (2/15)
Length of Visible Light 11h 45m
Length of Day
10h 52m
Last Quarter, 38% of the Moon is Illuminated
Feb 15
Last Quarter
Feb 21
New
Feb 29
First Quarter
Mar 8
Full
Mar 14
Last Quarter

Hourly Weather History & Observations

Time (CST) Temp. Windchill Dew Point Humidity Pressure Visibility Wind Dir Wind Speed Gust Speed Precip Events Conditions
12:53 AM 39.9 °F 32.5 °F 37.0 °F 89% 29.97 in 10.0 mi SE 12.7 mph - 0.00 in   Overcast
1:53 AM 41.0 °F 34.3 °F 37.0 °F 86% 29.98 in 10.0 mi SE 11.5 mph - 0.00 in   Overcast
2:53 AM 42.8 °F 36.2 °F 37.4 °F 81% 29.94 in 10.0 mi SE 12.7 mph - N/A   Overcast
3:53 AM 41.0 °F 33.9 °F 37.0 °F 86% 29.96 in 10.0 mi SE 12.7 mph - N/A   Overcast
4:27 AM 41.0 °F 33.9 °F 37.4 °F 87% 29.94 in 10.0 mi SE 12.7 mph - N/A   Mostly Cloudy
4:53 AM 41.0 °F 35.8 °F 37.9 °F 89% 29.96 in 10.0 mi SE 8.1 mph - 0.00 in Rain Light Rain
5:53 AM 42.8 °F 38.6 °F 37.4 °F 81% 29.94 in 10.0 mi East 6.9 mph - N/A   Clear
6:53 AM 39.9 °F 34.5 °F 37.9 °F 93% 29.97 in 7.0 mi ESE 8.1 mph - 0.03 in   Mostly Cloudy
7:53 AM 44.6 °F 40.2 °F 42.8 °F 93% 29.96 in 10.0 mi SE 8.1 mph - N/A   Overcast
8:00 AM 44.6 °F 41.4 °F 42.8 °F 93% 29.96 in 10.0 mi ESE 5.8 mph - N/A Thunderstorm Overcast
8:37 AM 46.4 °F 41.1 °F 42.8 °F 87% 29.98 in 2.5 mi SSE 11.5 mph - 0.04 in Rain , Thunderstorm Thunderstorms and Rain
8:48 AM 46.4 °F 41.5 °F 44.6 °F 93% 29.98 in 4.0 mi SE 10.4 mph - 0.06 in Rain Light Rain
8:53 AM 46.0 °F 43.1 °F 44.1 °F 93% 30.01 in 5.0 mi SE 5.8 mph - 0.07 in Rain Rain
9:24 AM 44.6 °F 42.2 °F 44.6 °F 100% 30.00 in 4.0 mi SE 4.6 mph - 0.03 in Rain Light Rain
9:31 AM 46.4 °F 42.4 °F 44.6 °F 93% 30.01 in 4.0 mi South 8.1 mph - 0.05 in Rain Rain
9:41 AM 46.4 °F 41.9 °F 44.6 °F 93% 30.02 in 4.0 mi South 9.2 mph - 0.07 in Rain Rain
9:53 AM 46.0 °F 41.4 °F 44.1 °F 93% 30.01 in 2.5 mi SE 9.2 mph - 0.11 in Rain Heavy Rain
10:02 AM 46.4 °F 42.9 °F 44.6 °F 93% 30.00 in 3.0 mi SE 6.9 mph - 0.01 in Rain Rain
10:11 AM 46.4 °F 41.9 °F 44.6 °F 93% 30.00 in 7.0 mi SSE 9.2 mph - 0.01 in Rain Light Rain
10:20 AM 46.4 °F 40.4 °F 44.6 °F 93% 29.99 in 10.0 mi SSE 13.8 mph - 0.01 in   Overcast
10:48 AM 48.2 °F - 46.4 °F 93% 29.99 in 10.0 mi SSE 12.7 mph - 0.01 in   Overcast
10:53 AM 48.0 °F - 45.0 °F 89% 30.00 in 10.0 mi SSE 12.7 mph - 0.01 in   Overcast
11:13 AM 48.2 °F - 46.4 °F 93% 29.99 in 10.0 mi South 10.4 mph - N/A   Overcast
11:53 AM 48.0 °F - 45.0 °F 89% 29.99 in 10.0 mi SE 10.4 mph - N/A   Overcast
12:13 PM 48.2 °F - 44.6 °F 87% 29.97 in 10.0 mi SE 11.5 mph - N/A   Overcast
12:49 PM 48.2 °F - 46.4 °F 93% 29.94 in 10.0 mi SE 10.4 mph - N/A   Overcast
12:53 PM 48.0 °F - 46.0 °F 93% 29.95 in 10.0 mi SE 8.1 mph - N/A   Overcast
1:53 PM 48.0 °F - 46.0 °F 93% 29.92 in 9.0 mi SSE 9.2 mph - N/A   Overcast
2:53 PM 48.0 °F - 46.0 °F 93% 29.92 in 8.0 mi SSE 3.5 mph - N/A   Overcast
3:53 PM 46.4 °F 41.9 °F 46.4 °F 100% 29.91 in 4.0 mi SE 9.2 mph - N/A Rain Light Rain
4:29 PM 48.2 °F - 46.4 °F 93% 29.90 in 4.0 mi ESE 6.9 mph - 0.00 in   Overcast
4:53 PM 48.0 °F - 46.9 °F 96% 29.91 in 4.0 mi SE 5.8 mph - 0.00 in   Overcast
5:32 PM 48.2 °F - 46.4 °F 93% 29.90 in 2.5 mi ESE 4.6 mph - N/A   Overcast
5:49 PM 48.2 °F - 46.4 °F 93% 29.90 in 3.0 mi SE 6.9 mph - N/A   Overcast
5:53 PM 48.0 °F - 46.9 °F 96% 29.92 in 3.0 mi SE 8.1 mph - N/A   Overcast
6:24 PM 46.4 °F 42.4 °F 46.4 °F 100% 29.92 in 5.0 mi SE 8.1 mph - N/A   Overcast
6:51 PM 46.4 °F 42.9 °F 46.4 °F 100% 29.93 in 6.0 mi SSE 6.9 mph - N/A   Overcast
6:53 PM 46.9 °F - 46.0 °F 97% 29.94 in 7.0 mi South 4.6 mph - N/A   Overcast
6:58 PM 48.2 °F - 46.4 °F 93% 29.94 in 8.0 mi Calm Calm - N/A   Overcast
7:43 PM 46.4 °F 43.5 °F 46.4 °F 100% 29.93 in 10.0 mi SE 5.8 mph - N/A   Overcast
7:53 PM 46.0 °F 42.5 °F 45.0 °F 96% 29.93 in 10.0 mi SE 6.9 mph - N/A   Overcast
8:10 PM 46.4 °F 45.2 °F 46.4 °F 100% 29.93 in 9.0 mi SE 3.5 mph - N/A   Overcast
8:53 PM 46.9 °F - 46.0 °F 97% 29.95 in 9.0 mi Calm Calm - N/A   Mostly Cloudy
9:12 PM 46.4 °F 43.5 °F 44.6 °F 93% 29.96 in 10.0 mi WSW 5.8 mph - N/A   Scattered Clouds
9:20 PM 48.2 °F - 46.4 °F 93% 29.97 in 10.0 mi SW 4.6 mph - N/A   Mostly Cloudy
9:53 PM 48.9 °F - 46.9 °F 93% 29.99 in 10.0 mi WSW 5.8 mph - N/A   Overcast
10:03 PM 50.0 °F - 46.4 °F 87% 29.99 in 10.0 mi WSW 8.1 mph - N/A   Overcast
10:13 PM 50.0 °F - 46.4 °F 87% 29.98 in 10.0 mi WSW 10.4 mph - N/A   Overcast
10:53 PM 48.9 °F - 46.0 °F 90% 30.00 in 10.0 mi WSW 8.1 mph - N/A   Partly Cloudy
11:53 PM 48.0 °F - 45.0 °F 89% 30.01 in 8.0 mi West 8.1 mph - N/A   Partly Cloudy